Clermont County, Batavia, OH

3:53 PM EST on December 15, 2019 (GMT -0500)
Clermont County, Batavia

Weather History for KI69 - November, 2019

Change the Weather History Date:

Wednesday, November 13, 2019

  Actual Average (KLUK) Record (KLUK)
Temperature  
Mean Temperature 20 °F -  
Max Temperature 30 °F 53 °F 73 °F (1958)
Min Temperature 11 °F 35 °F 18 °F (1986)
Degree Days  
Heating Degree Days 44    
Moisture  
Dew Point 14 °F    
Average Humidity 76    
Maximum Humidity 94    
Minimum Humidity 53    
Precipitation  
Precipitation 0.00 in - - ()
Sea Level Pressure  
Sea Level Pressure 30.34 in    
Wind  
Wind Speed 2 mph (SSE)    
Max Wind Speed 9 mph    
Max Gust Speed -    
Visibility 10 miles    
Events      
Averages and records for this station are not official NWS values.
T = Trace of Precipitation, MM = Missing Value Source: NWS Daily Summary

Daily Weather History Graph

Daily Weather History Graph

Search for Another Location

Airport or City:

Astronomy

Nov. 13, 2019 Rise Set
Actual Time 7:17 AM EST 5:24 PM EST
Civil Twilight 6:48 AM EST 5:52 PM EST
Nautical Twilight 6:16 AM EST 6:24 PM EST
Astronomical Twilight 5:45 AM EST 6:56 PM EST
Moon 6:27 PM EST (11/13) 8:09 AM EST (11/13)
Length of Visible Light 11h 03m
Length of Day
10h 06m
Full, 99% of the Moon is Illuminated
Nov 13
Full
Nov 19
Last Quarter
Nov 26
New
Dec 4
First Quarter
Dec 12
Full

Hourly Weather History & Observations

Time (EST) Temp. Windchill Dew Point Humidity Pressure Visibility Wind Dir Wind Speed Gust Speed Precip Events Conditions
12:15 AM 15.6 °F 10.0 °F 12.0 °F 86% 30.43 in 10.0 mi NW 3.5 mph - N/A   Clear
12:36 AM 15.3 °F 9.6 °F 11.8 °F 86% 30.43 in 10.0 mi NW 3.5 mph - N/A   Clear
12:55 AM 14.9 °F - 12.0 °F 88% 30.43 in 10.0 mi Calm Calm - N/A   Clear
1:18 AM 14.9 °F - 12.2 °F 89% 30.42 in 10.0 mi Calm Calm - N/A   Clear
1:36 AM 14.7 °F - 11.8 °F 88% 30.42 in 10.0 mi Calm Calm - N/A   Clear
1:55 AM 14.2 °F - 11.7 °F 90% 30.42 in 10.0 mi Calm Calm - N/A   Clear
2:15 AM 14.0 °F 8.2 °F 11.3 °F 89% 30.43 in 10.0 mi NW 3.5 mph - N/A   Clear
2:35 AM 13.8 °F - 11.1 °F 89% 30.43 in 10.0 mi Calm Calm - N/A   Clear
2:40 AM 13.6 °F - 10.9 °F 89% 30.43 in 10.0 mi Calm Calm - N/A   Clear
2:58 AM 13.8 °F - 11.1 °F 89% 30.42 in 10.0 mi Calm Calm - N/A   Clear
3:16 AM 13.5 °F - 10.9 °F 90% 30.42 in 10.0 mi Calm Calm - N/A   Clear
3:35 AM 13.6 °F - 11.3 °F 90% 30.42 in 10.0 mi Calm Calm - N/A   Clear
3:55 AM 12.7 °F - 11.1 °F 93% 30.42 in 10.0 mi Calm Calm - N/A   Clear
4:38 AM 13.5 °F - 11.3 °F 91% 30.43 in 10.0 mi Calm Calm - N/A   Clear
4:56 AM 12.7 °F - 11.1 °F 93% 30.44 in 10.0 mi Calm Calm - N/A   Clear
5:15 AM 12.9 °F - 10.4 °F 90% 30.44 in 10.0 mi Calm Calm - N/A   Clear
5:35 AM 12.4 °F - 10.0 °F 90% 30.44 in 10.0 mi Calm Calm - N/A   Clear
5:59 AM 11.7 °F - 9.7 °F 92% 30.44 in 10.0 mi Calm Calm - N/A   Clear
6:17 AM 11.3 °F - 9.5 °F 92% 30.43 in 10.0 mi Calm Calm - N/A   Clear
6:36 AM 11.1 °F - 9.3 °F 92% 30.42 in 10.0 mi Calm Calm - N/A   Clear
6:55 AM 11.3 °F - 9.9 °F 94% 30.42 in 10.0 mi Calm Calm - N/A   Clear
7:15 AM 12.0 °F - 10.0 °F 92% 30.42 in 10.0 mi Calm Calm - N/A   Clear
7:39 AM 12.2 °F - 10.2 °F 92% 30.41 in 10.0 mi Calm Calm - N/A   Clear
7:57 AM 12.2 °F - 10.2 °F 92% 30.41 in 10.0 mi Calm Calm - N/A   Clear
8:15 AM 13.3 °F - 11.3 °F 92% 30.42 in 10.0 mi Calm Calm - N/A   Clear
8:35 AM 15.6 °F - 13.8 °F 93% 30.43 in 10.0 mi Calm Calm - N/A   Clear
8:36 AM 15.8 °F - 14.0 °F 93% 30.43 in 10.0 mi Calm Calm - N/A   Clear
8:55 AM 16.0 °F 10.4 °F 13.8 °F 91% 30.41 in 10.0 mi SE 3.5 mph - N/A   Clear
9:19 AM 18.1 °F 11.3 °F 14.9 °F 87% 30.42 in 10.0 mi SE 4.6 mph - N/A   Clear
9:37 AM 19.6 °F 14.5 °F 15.1 °F 83% 30.42 in 10.0 mi SE 3.5 mph - N/A   Clear
9:55 AM 20.8 °F 14.4 °F 14.5 °F 77% 30.41 in 10.0 mi SE 4.6 mph - N/A   Clear
10:15 AM 22.1 °F 13.7 °F 14.0 °F 71% 30.40 in 10.0 mi SE 6.9 mph - N/A   Clear
10:35 AM 22.6 °F 14.3 °F 14.0 °F 69% 30.39 in 10.0 mi SSE 6.9 mph - N/A   Clear
10:59 AM 23.9 °F 15.8 °F 14.4 °F 67% 30.38 in 10.0 mi SE 6.9 mph - N/A   Clear
11:17 AM 24.4 °F 14.9 °F 13.8 °F 64% 30.38 in 10.0 mi South 9.2 mph - N/A   Clear
11:35 AM 25.2 °F 16.5 °F 14.5 °F 64% 30.37 in 10.0 mi South 8.1 mph - N/A   Clear
11:55 AM 25.2 °F 15.7 °F 15.4 °F 67% 30.36 in 10.0 mi ESE 9.2 mph - N/A   Clear
12:15 PM 26.1 °F 17.6 °F 16.2 °F 66% 30.34 in 10.0 mi SE 8.1 mph - N/A   Clear
12:39 PM 27.0 °F 20.5 °F 16.5 °F 65% 30.34 in 10.0 mi South 5.8 mph - N/A   Clear
12:57 PM 27.7 °F 21.3 °F 17.1 °F 64% 30.34 in 10.0 mi South 5.8 mph - N/A   Clear
1:15 PM 27.7 °F 21.3 °F 14.9 °F 59% 30.34 in 10.0 mi SSW 5.8 mph - N/A   Clear
1:35 PM 28.2 °F 21.0 °F 14.9 °F 57% 30.33 in 10.0 mi SSW 6.9 mph - N/A   Clear
1:55 PM 28.9 °F 25.2 °F 14.7 °F 55% 30.33 in 10.0 mi SSW 3.5 mph - N/A   Clear
2:18 PM 28.9 °F 23.9 °F 15.3 °F 57% 30.31 in 10.0 mi SSW 4.6 mph - N/A   Clear
2:37 PM 29.8 °F 23.9 °F 15.6 °F 56% 30.30 in 10.0 mi SSE 5.8 mph - N/A   Clear
2:55 PM 30.0 °F 26.5 °F 15.6 °F 55% 30.30 in 10.0 mi SE 3.5 mph - N/A   Clear
3:15 PM 30.0 °F 25.2 °F 14.7 °F 53% 30.30 in 10.0 mi SSE 4.6 mph - N/A   Clear
3:35 PM 29.8 °F 24.9 °F 14.9 °F 54% 30.29 in 10.0 mi SSE 4.6 mph - N/A   Clear
3:58 PM 29.3 °F 23.2 °F 14.9 °F 55% 30.28 in 10.0 mi SSE 5.8 mph - N/A   Clear
4:17 PM 29.5 °F 24.5 °F 15.6 °F 56% 30.26 in 10.0 mi SE 4.6 mph - N/A   Clear
5:38 PM 28.0 °F 22.8 °F 16.7 °F 62% 30.24 in 10.0 mi SSE 4.6 mph - N/A   Clear
5:56 PM 27.9 °F 20.6 °F 17.2 °F 64% 30.24 in 10.0 mi SSE 6.9 mph - N/A   Clear
6:16 PM 27.5 °F 23.6 °F 17.4 °F 66% 30.24 in 10.0 mi South 3.5 mph - N/A   Clear
6:35 PM 27.5 °F - 17.4 °F 66% 30.25 in 10.0 mi Calm Calm - N/A   Clear
6:55 PM 27.1 °F - 17.6 °F 67% 30.24 in 10.0 mi Calm Calm - N/A   Clear
7:18 PM 26.6 °F 22.6 °F 17.6 °F 69% 30.23 in 10.0 mi SSE 3.5 mph - N/A   Clear
7:36 PM 26.4 °F - 18.0 °F 70% 30.22 in 10.0 mi Calm Calm - N/A   Clear
7:55 PM 26.6 °F 22.6 °F 17.6 °F 69% 30.22 in 10.0 mi South 3.5 mph - N/A   Clear
8:15 PM 26.6 °F - 17.6 °F 69% 30.23 in 10.0 mi Calm Calm - N/A   Clear
8:35 PM 26.4 °F - 18.0 °F 70% 30.24 in 10.0 mi Calm Calm - N/A   Clear
8:58 PM 25.2 °F - 18.3 °F 75% 30.23 in 10.0 mi Calm Calm - N/A   Clear
9:16 PM 24.8 °F 20.5 °F 18.0 °F 75% 30.22 in 10.0 mi SSE 3.5 mph - N/A   Clear
9:35 PM 25.5 °F - 18.1 °F 74% 30.21 in 10.0 mi Calm Calm - N/A   Clear
9:56 PM 25.5 °F 19.9 °F 18.3 °F 74% 30.20 in 10.0 mi SSE 4.6 mph - N/A   Clear
10:15 PM 25.7 °F 20.1 °F 18.1 °F 73% 30.20 in 10.0 mi SSE 4.6 mph - N/A   Clear
10:38 PM 25.5 °F 19.9 °F 18.3 °F 74% 30.19 in 10.0 mi SSE 4.6 mph - N/A   Clear
10:56 PM 26.4 °F 20.9 °F 18.5 °F 72% 30.19 in 10.0 mi SSE 4.6 mph - N/A   Clear
11:15 PM 27.1 °F - 18.5 °F 70% 30.19 in 10.0 mi Calm Calm - N/A   Clear
11:35 PM 27.5 °F 23.6 °F 18.5 °F 69% 30.20 in 10.0 mi South 3.5 mph - N/A   Clear
11:59 PM 28.0 °F 21.7 °F 19.0 °F 69% 30.19 in 10.0 mi South 5.8 mph - N/A   Clear